TimeCDT,TemperatureF,Dew PointF,Humidity,Sea Level PressureIn,VisibilityMPH,Wind Direction,Wind SpeedMPH,Gust SpeedMPH,PrecipitationIn,Events,Conditions,WindDirDegrees,DateUTC
12:15 AM,58.3,55.4,90,30.15,10.0,Calm,Calm,-,N/A,,Clear,0,2013-07-01 05:15:00
12:35 AM,57.4,54.5,90,30.15,10.0,Calm,Calm,-,N/A,,Clear,0,2013-07-01 05:35:00
12:55 AM,55.8,53.6,92,30.15,10.0,Calm,Calm,-,N/A,,Clear,0,2013-07-01 05:55:00
1:15 AM,54.9,53.1,94,30.16,10.0,Calm,Calm,-,N/A,,Clear,0,2013-07-01 06:15:00
1:35 AM,56.5,54.9,94,30.16,10.0,NNE,3.5,-,N/A,,Clear,20,2013-07-01 06:35:00
1:55 AM,55.0,53.4,94,30.16,10.0,Calm,Calm,-,N/A,,Clear,0,2013-07-01 06:55:00
2:15 AM,56.1,54.7,95,30.16,10.0,Calm,Calm,-,N/A,,Clear,0,2013-07-01 07:15:00
2:35 AM,56.1,54.5,94,30.16,10.0,Calm,Calm,-,N/A,,Clear,0,2013-07-01 07:35:00
2:55 AM,55.9,54.7,96,30.16,10.0,Calm,Calm,-,N/A,,Clear,0,2013-07-01 07:55:00
3:15 AM,55.9,54.1,94,30.16,10.0,Calm,Calm,-,N/A,,Clear,0,2013-07-01 08:15:00
3:35 AM,55.2,53.6,94,30.16,10.0,Calm,Calm,-,N/A,,Clear,0,2013-07-01 08:35:00
3:55 AM,54.5,52.9,94,30.17,10.0,Calm,Calm,-,N/A,,Clear,0,2013-07-01 08:55:00
4:15 AM,53.6,52.3,95,30.17,10.0,NNE,3.5,-,N/A,,Clear,30,2013-07-01 09:15:00
4:35 AM,54.9,53.8,96,30.17,10.0,NNE,4.6,-,N/A,,Clear,30,2013-07-01 09:35:00
4:55 AM,55.0,53.6,95,30.18,10.0,NNE,4.6,-,N/A,,Clear,20,2013-07-01 09:55:00
5:15 AM,54.1,53.2,97,30.18,10.0,NNE,4.6,-,N/A,,Clear,30,2013-07-01 10:15:00
5:35 AM,54.7,53.2,95,30.18,10.0,NNE,3.5,-,N/A,,Clear,30,2013-07-01 10:35:00
5:55 AM,54.0,52.9,96,30.18,7.0,Calm,Calm,-,N/A,,Clear,0,2013-07-01 10:55:00
6:15 AM,54.5,53.2,96,30.19,7.0,Calm,Calm,-,N/A,,Clear,0,2013-07-01 11:15:00
6:35 AM,54.3,53.4,97,30.19,7.0,Calm,Calm,-,N/A,,Clear,0,2013-07-01 11:35:00
6:55 AM,56.3,54.7,94,30.19,7.0,NNE,3.5,-,N/A,,Clear,30,2013-07-01 11:55:00
7:15 AM,57.9,55.9,93,30.20,7.0,NNE,4.6,-,N/A,,Clear,20,2013-07-01 12:15:00
7:35 AM,59.9,56.5,88,30.20,7.0,Calm,Calm,-,N/A,,Clear,0,2013-07-01 12:35:00
7:55 AM,61.9,57.7,86,30.20,10.0,NNE,3.5,-,N/A,,Clear,30,2013-07-01 12:55:00
8:15 AM,64.2,58.8,83,30.20,10.0,Calm,Calm,-,N/A,,Clear,0,2013-07-01 13:15:00
8:35 AM,66.6,59.0,77,30.20,10.0,NNE,3.5,-,N/A,,Clear,30,2013-07-01 13:35:00
8:55 AM,68.9,60.4,74,30.20,10.0,Calm,Calm,-,N/A,,Clear,0,2013-07-01 13:55:00
9:15 AM,71.8,61.3,70,30.20,7.0,North,3.5,-,N/A,,Clear,10,2013-07-01 14:15:00
9:35 AM,74.1,61.2,64,30.20,10.0,NNE,4.6,-,N/A,,Clear,20,2013-07-01 14:35:00
9:55 AM,76.3,61.0,59,30.20,10.0,NNE,4.6,-,N/A,,Clear,30,2013-07-01 14:55:00
10:15 AM,78.1,57.7,49,30.20,10.0,NNE,6.9,-,N/A,,Clear,20,2013-07-01 15:15:00
10:35 AM,78.4,57.0,48,30.20,10.0,NNE,8.1,-,N/A,,Clear,20,2013-07-01 15:35:00
10:55 AM,79.3,55.2,43,30.20,10.0,North,11.5,17.3,N/A,,Clear,10,2013-07-01 15:55:00
11:15 AM,79.7,54.1,41,30.19,10.0,NE,11.5,-,N/A,,Clear,40,2013-07-01 16:15:00
11:35 AM,80.6,54.0,40,30.19,10.0,North,13.8,20.7,N/A,,Clear,10,2013-07-01 16:35:00
11:55 AM,80.6,54.5,40,30.19,10.0,NNE,6.9,17.3,N/A,,Clear,30,2013-07-01 16:55:00
12:15 PM,79.9,51.3,37,30.19,10.0,NNE,8.1,21.9,N/A,,Clear,20,2013-07-01 17:15:00
12:35 PM,81.1,53.1,38,30.19,10.0,NNE,10.4,17.3,N/A,,Scattered Clouds,30,2013-07-01 17:35:00
12:55 PM,81.7,49.1,32,30.18,10.0,NE,11.5,20.7,N/A,,Scattered Clouds,40,2013-07-01 17:55:00
1:15 PM,82.4,47.7,30,30.18,10.0,NNE,12.7,20.7,N/A,,Clear,30,2013-07-01 18:15:00
1:35 PM,82.9,47.3,29,30.18,10.0,ENE,10.4,20.7,N/A,,Clear,60,2013-07-01 18:35:00
1:55 PM,83.3,46.0,27,30.17,7.0,NE,10.4,20.7,N/A,,Clear,40,2013-07-01 18:55:00
2:15 PM,83.3,48.6,30,30.17,10.0,NNE,10.4,-,N/A,,Scattered Clouds,30,2013-07-01 19:15:00
2:35 PM,83.3,48.4,30,30.17,10.0,NE,10.4,-,N/A,,Mostly Cloudy,50,2013-07-01 19:35:00
2:55 PM,83.7,47.3,28,30.16,10.0,NE,10.4,-,N/A,,Mostly Cloudy,40,2013-07-01 19:55:00
3:15 PM,83.5,49.3,30,30.16,10.0,NE,6.9,-,N/A,,Scattered Clouds,40,2013-07-01 20:15:00
3:35 PM,82.6,46.6,28,30.16,10.0,NE,8.1,-,N/A,,Scattered Clouds,50,2013-07-01 20:35:00
3:55 PM,84.0,50.0,31,30.16,10.0,ENE,8.1,-,N/A,,Scattered Clouds,60,2013-07-01 20:55:00
4:15 PM,84.4,47.8,28,30.15,10.0,North,10.4,-,N/A,,Scattered Clouds,10,2013-07-01 21:15:00
4:35 PM,84.2,46.2,26,30.15,10.0,NE,6.9,-,N/A,,Clear,40,2013-07-01 21:35:00
4:55 PM,83.5,47.5,28,30.15,10.0,NNE,8.1,-,N/A,,Clear,30,2013-07-01 21:55:00
5:15 PM,84.2,47.7,28,30.15,10.0,NE,8.1,-,N/A,,Scattered Clouds,50,2013-07-01 22:15:00
5:35 PM,83.7,47.1,28,30.15,10.0,NNE,9.2,-,N/A,,Scattered Clouds,30,2013-07-01 22:35:00
5:55 PM,83.8,48.4,29,30.15,10.0,ENE,8.1,-,N/A,,Clear,60,2013-07-01 22:55:00
6:15 PM,83.5,48.0,29,30.14,10.0,ENE,6.9,-,N/A,,Clear,60,2013-07-01 23:15:00
6:35 PM,83.1,48.6,30,30.14,10.0,NNE,8.1,-,N/A,,Clear,30,2013-07-01 23:35:00
6:55 PM,82.4,50.5,33,30.14,10.0,NE,5.8,-,N/A,,Scattered Clouds,40,2013-07-01 23:55:00
7:15 PM,81.7,49.6,33,30.14,10.0,NE,6.9,-,N/A,,Mostly Cloudy,50,2013-07-02 00:15:00
7:35 PM,80.6,50.7,35,30.14,10.0,NE,5.8,-,N/A,,Scattered Clouds,50,2013-07-02 00:35:00
7:55 PM,79.2,50.4,36,30.15,10.0,NE,4.6,-,N/A,,Clear,50,2013-07-02 00:55:00
8:15 PM,78.3,51.6,39,30.15,10.0,NE,3.5,-,N/A,,Clear,40,2013-07-02 01:15:00
8:35 PM,77.2,52.0,41,30.15,10.0,Calm,Calm,-,N/A,,Clear,0,2013-07-02 01:35:00
8:55 PM,73.9,55.8,53,30.15,10.0,Calm,Calm,-,N/A,,Clear,0,2013-07-02 01:55:00
9:15 PM,72.3,55.4,55,30.14,10.0,Calm,Calm,-,N/A,,Clear,0,2013-07-02 02:15:00
9:35 PM,69.4,57.9,67,30.14,10.0,Calm,Calm,-,N/A,,Clear,0,2013-07-02 02:35:00
9:55 PM,66.9,59.7,78,30.15,10.0,Calm,Calm,-,N/A,,Clear,0,2013-07-02 02:55:00
10:15 PM,68.2,57.0,67,30.16,10.0,Calm,Calm,-,N/A,,Clear,0,2013-07-02 03:15:00
10:35 PM,67.3,58.8,74,30.16,10.0,Calm,Calm,-,N/A,,Clear,0,2013-07-02 03:35:00
10:55 PM,66.2,60.8,83,30.15,10.0,Calm,Calm,-,N/A,,Clear,0,2013-07-02 03:55:00
11:15 PM,65.8,58.8,78,30.15,10.0,Calm,Calm,-,N/A,,Clear,0,2013-07-02 04:15:00
11:35 PM,64.6,59.0,82,30.16,10.0,Calm,Calm,-,N/A,,Clear,0,2013-07-02 04:35:00
11:55 PM,62.8,58.3,85,30.16,10.0,Calm,Calm,-,N/A,,Clear,0,2013-07-02 04:55:00